Regional Weather Roundup
Issued by NWS

Home | Current Version | Previous Version | Text Only | Print | Product List | Glossary On
Versions: 1 2 3 4 5 6 7 8 9 10 11 12 13 14 15 16 17 18 19 20 21 22 23 24 25 26 27
000
ASCA42 TJSJ 171610
RWRPR
PUERTO RICO/U.S. VIRGIN ISLANDS HOURLY WEATHER ROUNDUP
NATIONAL WEATHER SERVICE SAN JUAN PR
1200 PM AST THU AUG 17 2017

PRZ001>002-007>008-010-171700-
PUERTO RICO

CITY           SKY/WX    TMP DP  RH WIND       PRES   REMARKS
SAN JUAN LMM   LGT RAIN  79  73  83 SE10G22   29.96F
AGUADILLA      PTSUNNY   82  75  78 NE6       29.97F
CEIBA          MOSUNNY   77  75  94 SW10      30.02F
$$

VIZ001>002-171700-
U.S. VIRGIN ISLANDS

CITY           SKY/WX    TMP DP  RH WIND       PRES   REMARKS
CHARLOTTE AMA  MOSUNNY   84  79  84 SE20      29.98F HX  96
CHRISTIANSTED  MOSUNNY   88  79  74 E17       29.99F HX 102
$$

HOURLY WEATHER ROUNDUP FOR THE NEWS MEDIA

CITY           SKY/WX    TMP DP  RH WIND       PRES   REMARKS
ORLANDO        MOSUNNY   89  75  63 SW3       30.09S HX  99
NEW YORK       MOSUNNY   79  59  50 E9        30.07S
NEWARK         MOSUNNY   81  60  48 VRB6      30.05F
CHICAGO        PTSUNNY   75  70  84 SW9       29.76R
HARTFORD       MOSUNNY   78  49  35 CALM      30.05F
BOSTON         MOSUNNY   75  49  39 S6        30.04F
DALLAS         CLOUDY    80  75  84 SE10      30.02R
PHILADELPHIA   MOSUNNY   84  64  50 NE7       30.04F
LOS ANGELES    PTSUNNY   69  61  75 SW7       30.02R
WASHINGTON DC  PTSUNNY   84  75  74 S6        30.01F HX  92



USA.gov is the U.S. government's official web portal to all federal, state and local government web resources and services.